Location: Wien
(48.2082°N, 16.3738°E)
Time: 12:31:17
(UTC+02:00)

Tiros 1 despin weight - Pass Details

Date: 21 September 2024
Orbit: 573 x 615 km, 48.2° (Epoch: 06 October)

Event Time Altitude Azimuth Distance (km) Brightness Sun altitude
Rises 06:41:21 0° 284° (WNW) 2,884 ? -0.6°
Exits shadow 06:41:21 - 284° (WNW) 2,883 ? -0.6°
Reaches altitude 10° 06:43:43 10° 279° (W) 1,979 ? -0.3°
Maximum altitude 06:48:05 48° 205° (SSW) 812 ? 0.5°
Drops below altitude 10° 06:52:27 10° 132° (SE) 1,973 ? 1.2°
Sets 06:54:48 0° 126° (SE) 2,873 ? 1.6°
